Wenatchee, WA

5:58 PM PDT on July 24, 2017 (GMT -0700)
Pangborn Memorial

Weather History for KEAT - August, 2013

Change the Weather History Date:

Friday, August 23, 2013

  Actual Average Record
Temperature  
Mean Temperature 69 °F 65 °F  
Max Temperature 91 °F 81 °F 101 °F (1961)
Min Temperature 47 °F 49 °F 41 °F (2015)
Cooling Degree Days 4 2  
Month to date cooling degree days 119 89  
Year to date cooling degree days 296 218  
Since 1 June cooling degree days 292 213  
Growing Degree Days 26 (Base 50)    
Moisture  
Dew Point 51 °F    
Average Humidity 44    
Maximum Humidity 63    
Minimum Humidity 28    
Precipitation  
Precipitation 0.00 in 0.02 in 0.90 in (1965)
Month to date precipitation 0.68 0.33  
Year to date precipitation 8.43 10.28  
Snow  
Snow 0.00 in 0.00 in - ()
Month to date snowfall 0.0 0.0  
Since 1 June snowfall 0.0 0.0  
Since 1 July snowfall 0.0 0.0  
Snow Depth 0.00 in    
Sea Level Pressure  
Sea Level Pressure 29.75 in    
Wind  
Wind Speed 7 mph (NW)    
Max Wind Speed 13 mph    
Max Gust Speed -    
Visibility 10 miles    
Events Rain    
T = Trace of Precipitation, MM = Missing Value Source: NWS Daily Summary

Daily Weather History Graph

Daily Weather History Graph

Search for Another Location

Airport or City:

Trip Planner

Search our weather history database for the weather conditions in past years. The results will help you decide how hot, cold, wet, or windy it might be!

Date:

Astronomy

Aug. 23, 2013 Rise Set
Actual Time 6:08 AM PDT 7:57 PM PDT
Civil Twilight 5:35 AM PDT 8:30 PM PDT
Nautical Twilight 4:55 AM PDT 9:10 PM PDT
Astronomical Twilight 4:11 AM PDT 9:53 PM PDT
Moon 9:00 PM PDT (8/23) 9:25 AM PDT (8/23)
Length of Visible Light 14h 54m
Length of Day
13h 49m
Waning Gibbous, 91% of the Moon is Illuminated
Aug 23
Waning Gibbous
Aug 28
Last Quarter
Sep 5
New
Sep 12
First Quarter
Sep 19
Full

Hourly Weather History & Observations

Time (PDT) Temp. Dew Point Humidity Pressure Visibility Wind Dir Wind Speed Gust Speed Precip Events Conditions
12:55 AM 73.9 °F 46.0 °F 37% 29.73 in 10.0 mi NNW 4.6 mph - N/A   Clear
1:55 AM 75.9 °F 46.0 °F 35% 29.72 in 10.0 mi NW 6.9 mph - N/A   Clear
2:55 AM 73.9 °F 48.0 °F 40% 29.72 in 10.0 mi NW 4.6 mph - 0.00 in   Clear
3:55 AM 73.0 °F 50.0 °F 44% 29.72 in 10.0 mi West 9.2 mph - N/A   Mostly Cloudy
4:55 AM 72.0 °F 51.1 °F 48% 29.74 in 10.0 mi NNW 9.2 mph - 0.00 in Rain Light Rain
5:55 AM 69.1 °F 55.0 °F 61% 29.76 in 8.0 mi NW 11.5 mph - 0.00 in Rain Light Rain
6:55 AM 68.0 °F 55.0 °F 63% 29.77 in 10.0 mi NNW 8.1 mph - 0.01 in   Mostly Cloudy
7:55 AM 69.1 °F 55.0 °F 61% 29.78 in 10.0 mi NNW 11.5 mph - N/A   Mostly Cloudy
8:55 AM 71.1 °F 54.0 °F 55% 29.78 in 10.0 mi NNW 9.2 mph - N/A   Mostly Cloudy
9:55 AM 71.1 °F 55.9 °F 59% 29.78 in 10.0 mi West 6.9 mph - N/A   Partly Cloudy
10:55 AM 73.0 °F 54.0 °F 51% 29.79 in 10.0 mi NW 11.5 mph - N/A   Mostly Cloudy
11:55 AM 75.0 °F 55.0 °F 50% 29.79 in 10.0 mi West 9.2 mph - N/A   Mostly Cloudy
12:55 PM 78.1 °F 52.0 °F 40% 29.77 in 10.0 mi West 6.9 mph - N/A   Clear
1:55 PM 79.0 °F 51.1 °F 38% 29.75 in 10.0 mi WSW 5.8 mph - N/A   Partly Cloudy
2:55 PM 82.0 °F 48.0 °F 30% 29.74 in 10.0 mi WSW 5.8 mph - N/A   Clear
3:55 PM 82.0 °F 48.9 °F 31% 29.73 in 10.0 mi Calm Calm - N/A   Clear
4:55 PM 84.0 °F 50.0 °F 31% 29.72 in 10.0 mi Calm Calm - N/A   Clear
5:55 PM 84.0 °F 48.0 °F 28% 29.71 in 10.0 mi Calm Calm - N/A   Clear
6:55 PM 82.9 °F 50.0 °F 32% 29.71 in 10.0 mi WNW 9.2 mph - N/A   Clear
7:55 PM 78.1 °F 50.0 °F 37% 29.72 in 10.0 mi NW 12.7 mph - N/A   Clear
8:55 PM 75.0 °F 51.1 °F 43% 29.75 in 10.0 mi NW 12.7 mph - N/A   Clear
9:55 PM 73.0 °F 50.0 °F 44% 29.76 in 10.0 mi WNW 11.5 mph - N/A   Clear
10:55 PM 71.1 °F 48.0 °F 44% 29.77 in 10.0 mi NW 11.5 mph - N/A   Clear
11:55 PM 70.0 °F 46.9 °F 44% 29.77 in 10.0 mi NW 12.7 mph - N/A   Clear